| time (UTC) | temp F | wind direction | speed MPH | gust MPH | rain 1hr in | rain 24hr in | rain mn in | humidity % | barometer mb |
| 20260902051503 | 71 | 174 | 1.0 | 3.0 | 0.00 | 0.12 | 0.00 | 64 | 1017.2 |
| 20260902051003 | 71 | 167 | 1.0 | 5.0 | 0.00 | 0.12 | 0.00 | 64 | 1017.2 |
| 20260902050712 | 71 | 165 | 1.0 | 5.0 | 0.00 | 0.12 | 0.00 | 64 | 1017.2 |
| 20260902050006 | 71 | 157 | 2.0 | 7.0 | 0.00 | 0.12 | 0.00 | 64 | 1017.0 |
| 20260902045503 | 71 | 161 | 2.0 | 7.0 | 0.00 | 0.12 | 0.00 | 64 | 1017.2 |
| 20260902045003 | 71 | 171 | 0.0 | 5.0 | 0.00 | 0.12 | 0.00 | 64 | 1017.2 |
| 20260902044503 | 71 | 0 | 0.0 | 0.0 | 0.00 | 0.12 | 0.00 | 64 | 1017.0 |
| 20260902044003 | 71 | 0 | 0.0 | 0.0 | 0.00 | 0.12 | 0.00 | 64 | 1017.1 |
| 20260902043503 | 71 | 0 | 0.0 | 0.0 | 0.00 | 0.12 | 0.00 | 64 | 1017.0 |
| 20260902043003 | 71 | 0 | 0.0 | 0.0 | 0.00 | 0.12 | 0.00 | 64 | 1017.0 |
| 20260902042503 | 71 | 0 | 0.0 | 0.0 | 0.00 | 0.12 | 0.00 | 64 | 1017.0 |
| 20260902042003 | 71 | 326 | 0.0 | 3.0 | 0.00 | 0.12 | 0.00 | 64 | 1016.9 |
| 20260902041504 | 71 | 327 | 1.0 | 3.0 | 0.00 | 0.12 | 0.00 | 64 | 1017.0 |
| 20260902041213 | 71 | 328 | 0.0 | 3.0 | 0.00 | 0.12 | 0.00 | 64 | 1016.9 |
| 20260902040503 | 71 | 329 | 1.0 | 3.0 | 0.00 | 0.12 | 0.00 | 64 | 1016.9 |
| 20260902040003 | 71 | 341 | 1.0 | 4.0 | 0.00 | 0.12 | 0.00 | 64 | 1016.8 |
| 20260902035714 | 71 | 344 | 1.0 | 4.0 | 0.00 | 0.12 | 0.12 | 64 | 1016.8 |
| 20260902035213 | 71 | 355 | 0.0 | 4.0 | 0.00 | 0.12 | 0.12 | 64 | 1016.7 |
| 20260902034712 | 71 | 0 | 0.0 | 0.0 | 0.00 | 0.12 | 0.12 | 64 | 1016.7 |
| 20260902034213 | 71 | 0 | 0.0 | 0.0 | 0.00 | 0.12 | 0.12 | 64 | 1016.7 |
| 20260902033503 | 71 | 0 | 0.0 | 0.0 | 0.00 | 0.12 | 0.12 | 64 | 1016.6 |
| 20260902033003 | 71 | 0 | 0.0 | 0.0 | 0.00 | 0.12 | 0.12 | 64 | 1016.7 |
| 20260902032714 | 71 | 0 | 0.0 | 0.0 | 0.00 | 0.12 | 0.12 | 64 | 1016.7 |
| 20260902032003 | 71 | 0 | 0.0 | 0.0 | 0.00 | 0.12 | 0.12 | 64 | 1016.7 |
| 20260902031503 | 71 | 0 | 0.0 | 0.0 | 0.00 | 0.12 | 0.12 | 64 | 1016.8 |
| 20260902031213 | 71 | 0 | 0.0 | 0.0 | 0.00 | 0.12 | 0.12 | 64 | 1016.7 |
| 20260902030714 | 71 | 0 | 0.0 | 0.0 | 0.00 | 0.12 | 0.12 | 64 | 1016.7 |
| 20260902030003 | 71 | 0 | 0.0 | 0.0 | 0.00 | 0.12 | 0.12 | 64 | 1017.0 |
| 20260902025503 | 71 | 0 | 0.0 | 0.0 | 0.00 | 0.12 | 0.12 | 64 | 1016.9 |
| 20260902025003 | 71 | 0 | 0.0 | 0.0 | 0.00 | 0.12 | 0.12 | 64 | 1016.9 |
| 20260902024503 | 71 | 0 | 0.0 | 0.0 | 0.00 | 0.12 | 0.12 | 63 | 1016.8 |
| 20260902024003 | 71 | 0 | 0.0 | 0.0 | 0.00 | 0.12 | 0.12 | 63 | 1016.8 |
| 20260902023503 | 71 | 0 | 0.0 | 0.0 | 0.00 | 0.12 | 0.12 | 63 | 1016.9 |
| 20260902023003 | 71 | 0 | 0.0 | 0.0 | 0.00 | 0.12 | 0.12 | 63 | 1016.9 |
| 20260902022503 | 72 | 0 | 0.0 | 0.0 | 0.00 | 0.12 | 0.12 | 64 | 1017.0 |
| 20260902022003 | 72 | 0 | 0.0 | 0.0 | 0.00 | 0.12 | 0.12 | 64 | 1017.1 |
| 20260902021503 | 71 | 0 | 0.0 | 0.0 | 0.00 | 0.12 | 0.12 | 64 | 1017.0 |
| 20260902021003 | 71 | 0 | 0.0 | 0.0 | 0.00 | 0.12 | 0.12 | 64 | 1017.4 |
| 20260902020503 | 71 | 0 | 0.0 | 0.0 | 0.00 | 0.12 | 0.12 | 63 | 1017.0 |
| 20260902020003 | 71 | 0 | 0.0 | 0.0 | 0.00 | 0.12 | 0.12 | 63 | 1016.9 |
| 20260902015503 | 71 | 0 | 0.0 | 0.0 | 0.00 | 0.12 | 0.12 | 63 | 1016.9 |
| 20260902015003 | 71 | 0 | 0.0 | 0.0 | 0.00 | 0.12 | 0.12 | 63 | 1017.0 |
| 20260902014503 | 71 | 0 | 0.0 | 0.0 | 0.00 | 0.12 | 0.12 | 63 | 1016.9 |
| 20260902014003 | 71 | 0 | 0.0 | 0.0 | 0.00 | 0.13 | 0.12 | 63 | 1016.8 |
| 20260902013713 | 71 | 0 | 0.0 | 0.0 | 0.00 | 0.13 | 0.12 | 63 | 1016.8 |
| 20260902013003 | 71 | 0 | 0.0 | 0.0 | 0.00 | 0.13 | 0.12 | 63 | 1016.8 |
| 20260902012503 | 71 | 0 | 0.0 | 0.0 | 0.00 | 0.13 | 0.12 | 63 | 1016.7 |
| 20260902012003 | 71 | 279 | 1.0 | 3.0 | 0.00 | 0.13 | 0.12 | 62 | 1016.7 |
| 20260902011503 | 71 | 278 | 2.0 | 3.0 | 0.00 | 0.13 | 0.12 | 62 | 1016.6 |
| 20260902011004 | 71 | 278 | 2.0 | 3.0 | 0.00 | 0.13 | 0.12 | 62 | 1016.5 |
| 20260902010503 | 71 | 279 | 2.0 | 3.0 | 0.00 | 0.13 | 0.12 | 62 | 1016.5 |
| 20260902010216 | 72 | 279 | 2.0 | 3.0 | 0.00 | 0.13 | 0.12 | 62 | 1016.4 |
| 20260902005503 | 72 | 298 | 2.0 | 4.0 | 0.00 | 0.13 | 0.12 | 62 | 1016.4 |
| 20260902005003 | 72 | 314 | 1.0 | 3.0 | 0.00 | 0.13 | 0.12 | 61 | 1016.2 |
| 20260902004713 | 72 | 314 | 1.0 | 3.0 | 0.00 | 0.13 | 0.12 | 61 | 1016.2 |
| 20260902004214 | 72 | 314 | 1.0 | 3.0 | 0.00 | 0.13 | 0.12 | 61 | 1016.1 |
| 20260902003503 | 72 | 315 | 1.0 | 4.0 | 0.00 | 0.13 | 0.12 | 61 | 1016.0 |
| 20260902003003 | 72 | 321 | 1.0 | 4.0 | 0.00 | 0.13 | 0.12 | 61 | 1015.8 |
| 20260902002503 | 72 | 331 | 1.0 | 3.0 | 0.00 | 0.13 | 0.12 | 61 | 1015.7 |
| 20260902002003 | 72 | 328 | 1.0 | 4.0 | 0.00 | 0.13 | 0.12 | 61 | 1015.6 |
| 20260902001503 | 72 | 314 | 2.0 | 4.0 | 0.00 | 0.13 | 0.12 | 61 | 1015.7 |
| 20260902001003 | 72 | 306 | 2.0 | 3.0 | 0.00 | 0.13 | 0.12 | 61 | 1015.5 |
| 20260902000713 | 72 | 305 | 2.0 | 3.0 | 0.00 | 0.13 | 0.12 | 62 | 1015.7 |
| 20260902000003 | 73 | 304 | 2.0 | 4.0 | 0.00 | 0.13 | 0.12 | 62 | 1015.4 |
| 20260901235503 | 73 | 306 | 1.0 | 4.0 | 0.00 | 0.13 | 0.12 | 61 | 1015.4 |
| 20260901235003 | 73 | 306 | 1.0 | 3.0 | 0.00 | 0.13 | 0.12 | 61 | 1015.4 |
| 20260901234503 | 73 | 311 | 2.0 | 3.0 | 0.00 | 0.13 | 0.12 | 61 | 1015.4 |
| 20260901234214 | 74 | 315 | 2.0 | 4.0 | 0.00 | 0.13 | 0.12 | 61 | 1015.4 |
| 20260901233503 | 74 | 322 | 1.0 | 4.0 | 0.00 | 0.13 | 0.12 | 61 | 1015.5 |
| 20260901233003 | 74 | 292 | 1.0 | 4.0 | 0.00 | 0.13 | 0.12 | 61 | 1015.6 |
| 20260901232712 | 74 | 294 | 1.0 | 4.0 | 0.00 | 0.13 | 0.12 | 61 | 1015.6 |
| 20260901232003 | 75 | 309 | 2.0 | 7.0 | 0.00 | 0.13 | 0.12 | 61 | 1015.7 |
| 20260901231503 | 75 | 318 | 1.0 | 7.0 | 0.00 | 0.13 | 0.12 | 61 | 1015.6 |
| 20260901231003 | 75 | 315 | 0.0 | 2.0 | 0.00 | 0.13 | 0.12 | 60 | 1015.7 |
| 20260901230503 | 76 | 315 | 0.0 | 2.0 | 0.00 | 0.13 | 0.12 | 60 | 1015.6 |
| 20260901230003 | 76 | 315 | 0.0 | 1.0 | 0.00 | 0.13 | 0.12 | 59 | 1015.6 |
| 20260901225503 | 76 | 315 | 0.0 | 1.0 | 0.00 | 0.13 | 0.12 | 59 | 1015.6 |
| 20260901225003 | 77 | 355 | 0.0 | 3.0 | 0.00 | 0.13 | 0.12 | 59 | 1015.6 |
| 20260901224503 | 77 | 348 | 1.0 | 4.0 | 0.00 | 0.13 | 0.12 | 58 | 1015.6 |
| 20260901224003 | 77 | 352 | 2.0 | 6.0 | 0.00 | 0.13 | 0.12 | 57 | 1015.6 |
| 20260901223503 | 77 | 356 | 2.0 | 6.0 | 0.00 | 0.13 | 0.12 | 57 | 1015.6 |
| 20260901223213 | 77 | 356 | 3.0 | 6.0 | 0.00 | 0.13 | 0.12 | 57 | 1015.6 |
| 20260901222503 | 78 | 6 | 2.0 | 7.0 | 0.00 | 0.14 | 0.12 | 57 | 1015.6 |
| 20260901222003 | 78 | 3 | 2.0 | 5.0 | 0.00 | 0.14 | 0.12 | 57 | 1015.7 |
| 20260901221503 | 78 | 357 | 2.0 | 5.0 | 0.00 | 0.14 | 0.12 | 57 | 1015.7 |
| 20260901221213 | 78 | 1 | 2.0 | 5.0 | 0.00 | 0.14 | 0.12 | 57 | 1015.6 |
| 20260901220503 | 78 | 5 | 2.0 | 5.0 | 0.00 | 0.14 | 0.12 | 56 | 1015.6 |
| 20260901220003 | 79 | 360 | 3.0 | 6.0 | 0.00 | 0.14 | 0.12 | 56 | 1015.5 |
| 20260901215503 | 79 | 3 | 3.0 | 8.0 | 0.00 | 0.14 | 0.12 | 56 | 1015.5 |
| 20260901215213 | 79 | 11 | 4.0 | 8.0 | 0.00 | 0.14 | 0.12 | 56 | 1015.4 |
| 20260901214503 | 79 | 11 | 4.0 | 8.0 | 0.00 | 0.14 | 0.12 | 55 | 1015.5 |
| 20260901214003 | 79 | 356 | 2.0 | 5.0 | 0.00 | 0.14 | 0.12 | 55 | 1015.3 |
| 20260901213503 | 79 | 4 | 1.0 | 5.0 | 0.00 | 0.14 | 0.12 | 55 | 1015.8 |
| 20260901213003 | 80 | 34 | 2.0 | 5.0 | 0.00 | 0.14 | 0.12 | 55 | 1015.3 |
| 20260901212504 | 80 | 18 | 3.0 | 7.0 | 0.00 | 0.14 | 0.12 | 55 | 1015.1 |
| 20260901212003 | 80 | 3 | 3.0 | 8.0 | 0.00 | 0.14 | 0.12 | 54 | 1015.2 |
| 20260901211503 | 80 | 360 | 3.0 | 8.0 | 0.00 | 0.14 | 0.12 | 53 | 1015.1 |
| 20260901211003 | 80 | 357 | 3.0 | 8.0 | 0.00 | 0.14 | 0.12 | 53 | 1015.1 |
| 20260901210503 | 81 | 7 | 4.0 | 9.0 | 0.00 | 0.14 | 0.12 | 53 | 1015.2 |
| 20260901210003 | 81 | 15 | 4.0 | 9.0 | 0.00 | 0.14 | 0.12 | 52 | 1015.1 |
| 20260901205503 | 81 | 354 | 4.0 | 13.0 | 0.00 | 0.14 | 0.12 | 52 | 1015.1 |
| 20260901205003 | 81 | 326 | 4.0 | 13.0 | 0.00 | 0.14 | 0.12 | 51 | 1015.2 |
| 20260901204503 | 81 | 303 | 4.0 | 10.0 | 0.00 | 0.14 | 0.12 | 51 | 1015.2 |
| 20260901204003 | 82 | 347 | 4.0 | 10.0 | 0.00 | 0.14 | 0.12 | 50 | 1015.3 |
| 20260901203503 | 82 | 7 | 3.0 | 10.0 | 0.00 | 0.14 | 0.12 | 51 | 1015.3 |
| 20260901203003 | 82 | 312 | 3.0 | 10.0 | 0.00 | 0.14 | 0.12 | 51 | 1015.3 |
| 20260901202503 | 81 | 271 | 3.0 | 9.0 | 0.00 | 0.14 | 0.12 | 50 | 1015.2 |
| 20260901202003 | 81 | 284 | 2.0 | 8.0 | 0.00 | 0.14 | 0.12 | 49 | 1015.1 |
| 20260901201713 | 81 | 328 | 3.0 | 11.0 | 0.00 | 0.15 | 0.12 | 50 | 1015.1 |
| 20260901201212 | 81 | 322 | 3.0 | 11.0 | 0.00 | 0.15 | 0.12 | 50 | 1015.1 |
| 20260901200503 | 81 | 311 | 3.0 | 8.0 | 0.00 | 0.17 | 0.12 | 50 | 1015.1 |
| 20260901200003 | 81 | 299 | 4.0 | 8.0 | 0.00 | 0.18 | 0.12 | 50 | 1015.1 |
| 20260901195503 | 81 | 283 | 3.0 | 8.0 | 0.00 | 0.18 | 0.12 | 51 | 1015.1 |
| 20260901195003 | 80 | 286 | 3.0 | 8.0 | 0.00 | 0.21 | 0.12 | 52 | 1015.2 |
| 20260901194503 | 80 | 273 | 3.0 | 8.0 | 0.00 | 0.23 | 0.12 | 50 | 1015.2 |
| 20260901194003 | 81 | 296 | 2.0 | 8.0 | 0.00 | 0.24 | 0.12 | 50 | 1015.2 |
| 20260901193503 | 81 | 298 | 3.0 | 8.0 | 0.00 | 0.24 | 0.12 | 50 | 1015.2 |
| 20260901193003 | 81 | 281 | 3.0 | 9.0 | 0.00 | 0.24 | 0.12 | 49 | 1015.4 |
| 20260901192503 | 82 | 289 | 3.0 | 9.0 | 0.00 | 0.24 | 0.12 | 48 | 1015.4 |
| 20260901192003 | 82 | 308 | 3.0 | 10.0 | 0.00 | 0.24 | 0.12 | 51 | 1015.4 |
| 20260901191503 | 81 | 300 | 5.0 | 10.0 | 0.00 | 0.24 | 0.12 | 50 | 1015.4 |
| 20260901191003 | 81 | 299 | 3.0 | 10.0 | 0.00 | 0.24 | 0.12 | 50 | 1015.4 |
| 20260901190503 | 81 | 296 | 3.0 | 8.0 | 0.00 | 0.24 | 0.12 | 51 | 1015.4 |
| 20260901190214 | 81 | 289 | 3.0 | 8.0 | 0.00 | 0.24 | 0.12 | 50 | 1015.4 |
| 20260901185503 | 80 | 297 | 2.0 | 8.0 | 0.00 | 0.24 | 0.12 | 51 | 1015.3 |
| 20260901185214 | 81 | 309 | 1.0 | 7.0 | 0.00 | 0.24 | 0.12 | 51 | 1015.4 |
| 20260901184503 | 80 | 282 | 2.0 | 8.0 | 0.00 | 0.24 | 0.12 | 53 | 1015.4 |
| 20260901184003 | 80 | 271 | 3.0 | 9.0 | 0.00 | 0.24 | 0.12 | 52 | 1015.4 |
| 20260901183503 | 80 | 268 | 3.0 | 11.0 | 0.00 | 0.24 | 0.12 | 52 | 1015.3 |
| 20260901183003 | 80 | 268 | 4.0 | 13.0 | 0.00 | 0.24 | 0.12 | 53 | 1015.3 |
| 20260901182503 | 79 | 265 | 4.0 | 13.0 | 0.00 | 0.24 | 0.12 | 52 | 1015.4 |
| 20260901182003 | 80 | 262 | 3.0 | 11.0 | 0.00 | 0.24 | 0.12 | 52 | 1015.3 |
| 20260901181713 | 80 | 265 | 4.0 | 11.0 | 0.00 | 0.24 | 0.12 | 53 | 1015.3 |
| 20260901181003 | 80 | 270 | 4.0 | 14.0 | 0.00 | 0.25 | 0.12 | 51 | 1015.0 |
| 20260901180712 | 80 | 266 | 4.0 | 14.0 | 0.00 | 0.25 | 0.12 | 51 | 1015.1 |
| 20260901180214 | 80 | 267 | 4.0 | 14.0 | 0.00 | 0.27 | 0.12 | 52 | 1015.0 |
| 20260901175503 | 80 | 270 | 4.0 | 11.0 | 0.00 | 0.29 | 0.12 | 52 | 1014.9 |
| 20260901175003 | 80 | 271 | 5.0 | 11.0 | 0.00 | 0.31 | 0.12 | 52 | 1014.9 |
| 20260901174712 | 80 | 265 | 4.0 | 11.0 | 0.00 | 0.32 | 0.12 | 51 | 1014.9 |
| 20260901174003 | 80 | 262 | 4.0 | 15.0 | 0.00 | 0.34 | 0.12 | 53 | 1014.7 |
| 20260901173503 | 80 | 269 | 3.0 | 10.0 | 0.00 | 0.35 | 0.12 | 52 | 1014.8 |
| 20260901173003 | 80 | 274 | 3.0 | 10.0 | 0.00 | 0.36 | 0.12 | 51 | 1014.8 |
| 20260901172503 | 80 | 284 | 4.0 | 11.0 | 0.00 | 0.36 | 0.12 | 53 | 1014.8 |
| 20260901172003 | 80 | 275 | 3.0 | 11.0 | 0.00 | 0.38 | 0.12 | 52 | 1014.6 |
| 20260901171503 | 80 | 232 | 3.0 | 8.0 | 0.00 | 0.41 | 0.12 | 53 | 1014.6 |
| 20260901171003 | 80 | 234 | 5.0 | 13.0 | 0.00 | 0.42 | 0.12 | 53 | 1014.7 |
| 20260901170503 | 79 | 249 | 6.0 | 14.0 | 0.00 | 0.43 | 0.12 | 53 | 1014.8 |
| 20260901170003 | 79 | 255 | 4.0 | 14.0 | 0.00 | 0.44 | 0.12 | 52 | 1014.8 |
| 20260901165714 | 79 | 249 | 3.0 | 13.0 | 0.01 | 0.44 | 0.12 | 52 | 1014.9 |
| 20260901165004 | 79 | 235 | 3.0 | 8.0 | 0.01 | 0.45 | 0.12 | 55 | 1014.9 |
| 20260901164503 | 78 | 217 | 4.0 | 9.0 | 0.01 | 0.45 | 0.12 | 55 | 1014.9 |
| 20260901164003 | 78 | 171 | 3.0 | 9.0 | 0.01 | 0.46 | 0.12 | 56 | 1014.9 |
| 20260901163503 | 77 | 133 | 2.0 | 8.0 | 0.01 | 0.46 | 0.12 | 58 | 1014.9 |
| 20260901163003 | 76 | 143 | 2.0 | 8.0 | 0.01 | 0.47 | 0.12 | 58 | 1014.9 |
| 20260901162503 | 76 | 136 | 1.0 | 6.0 | 0.01 | 0.47 | 0.12 | 59 | 1014.9 |
| 20260901162003 | 75 | 83 | 1.0 | 5.0 | 0.01 | 0.47 | 0.12 | 60 | 1015.0 |
| 20260901161714 | 75 | 98 | 2.0 | 5.0 | 0.01 | 0.47 | 0.12 | 61 | 1015.1 |
| 20260901161213 | 74 | 115 | 2.0 | 4.0 | 0.01 | 0.47 | 0.12 | 61 | 1015.1 |
| 20260901160503 | 74 | 117 | 1.0 | 3.0 | 0.01 | 0.47 | 0.12 | 61 | 1015.0 |
| 20260901160213 | 74 | 118 | 1.0 | 3.0 | 0.01 | 0.47 | 0.12 | 62 | 1015.0 |
| 20260901155503 | 74 | 59 | 1.0 | 3.0 | 0.00 | 0.47 | 0.11 | 60 | 1015.0 |
| 20260901155003 | 73 | 56 | 1.0 | 3.0 | 0.00 | 0.47 | 0.11 | 61 | 1015.1 |
| 20260901154503 | 73 | 351 | 1.0 | 3.0 | 0.00 | 0.47 | 0.11 | 60 | 1015.1 |
| 20260901154003 | 73 | 335 | 1.0 | 3.0 | 0.00 | 0.47 | 0.11 | 61 | 1015.1 |
| 20260901153503 | 73 | 313 | 0.0 | 3.0 | 0.00 | 0.48 | 0.11 | 60 | 1015.0 |
| 20260901153003 | 73 | 312 | 0.0 | 2.0 | 0.00 | 0.48 | 0.11 | 61 | 1015.0 |
| 20260901152714 | 73 | 313 | 0.0 | 2.0 | 0.00 | 0.49 | 0.11 | 61 | 1015.1 |
| 20260901152003 | 73 | 314 | 0.0 | 2.0 | 0.00 | 0.50 | 0.11 | 61 | 1015.1 |
| 20260901151503 | 73 | 279 | 0.0 | 1.0 | 0.00 | 0.52 | 0.11 | 61 | 1015.0 |
| 20260901151003 | 73 | 279 | 0.0 | 1.0 | 0.00 | 0.53 | 0.11 | 61 | 1015.1 |
| 20260901150503 | 73 | 279 | 0.0 | 1.0 | 0.00 | 0.54 | 0.11 | 61 | 1014.9 |
| 20260901150003 | 73 | 279 | 0.0 | 2.0 | 0.00 | 0.54 | 0.11 | 62 | 1014.8 |
| 20260901145503 | 72 | 279 | 1.0 | 3.0 | 0.00 | 0.54 | 0.11 | 61 | 1014.9 |
| 20260901145003 | 72 | 278 | 1.0 | 6.0 | 0.00 | 0.54 | 0.11 | 61 | 1014.9 |
| 20260901144503 | 72 | 277 | 0.0 | 6.0 | 0.00 | 0.55 | 0.11 | 61 | 1014.8 |
| 20260901144212 | 72 | 0 | 0.0 | 0.0 | 0.00 | 0.55 | 0.11 | 61 | 1014.8 |
| 20260901143503 | 72 | 0 | 0.0 | 0.0 | 0.00 | 0.55 | 0.11 | 62 | 1014.7 |
| 20260901143003 | 72 | 188 | 0.0 | 3.0 | 0.00 | 0.55 | 0.11 | 61 | 1014.7 |
| 20260901142503 | 72 | 120 | 1.0 | 4.0 | 0.00 | 0.55 | 0.11 | 61 | 1014.6 |
| 20260901142214 | 72 | 118 | 0.0 | 4.0 | 0.00 | 0.56 | 0.11 | 61 | 1014.7 |
| 20260901141713 | 72 | 99 | 0.0 | 3.0 | 0.00 | 0.58 | 0.11 | 61 | 1014.6 |
| 20260901141003 | 72 | 0 | 0.0 | 0.0 | 0.00 | 0.60 | 0.11 | 62 | 1014.6 |
| 20260901140503 | 72 | 231 | 0.0 | 2.0 | 0.00 | 0.62 | 0.11 | 62 | 1014.7 |
| 20260901140214 | 72 | 208 | 0.0 | 2.0 | 0.00 | 0.63 | 0.11 | 61 | 1014.7 |
| 20260901135503 | 72 | 191 | 0.0 | 2.0 | 0.00 | 0.63 | 0.11 | 62 | 1014.6 |
| 20260901135003 | 71 | 182 | 0.0 | 5.0 | 0.00 | 0.63 | 0.11 | 62 | 1014.6 |
| 20260901134503 | 71 | 193 | 0.0 | 5.0 | 0.00 | 0.63 | 0.11 | 62 | 1014.6 |
| 20260901134003 | 71 | 238 | 0.0 | 4.0 | 0.00 | 0.63 | 0.11 | 62 | 1014.5 |
| 20260901133713 | 71 | 217 | 1.0 | 5.0 | 0.00 | 0.63 | 0.11 | 62 | 1014.5 |
| 20260901133003 | 71 | 224 | 1.0 | 7.0 | 0.00 | 0.63 | 0.11 | 62 | 1014.6 |
| 20260901132713 | 71 | 245 | 1.0 | 7.0 | 0.00 | 0.63 | 0.11 | 62 | 1014.7 |
| 20260901132003 | 71 | 201 | 1.0 | 2.0 | 0.00 | 0.63 | 0.11 | 62 | 1014.9 |
| 20260901131503 | 71 | 177 | 0.0 | 4.0 | 0.00 | 0.63 | 0.11 | 62 | 1014.9 |
| 20260901131214 | 71 | 197 | 1.0 | 4.0 | 0.00 | 0.63 | 0.11 | 62 | 1015.0 |
| 20260901130503 | 71 | 224 | 1.0 | 4.0 | 0.00 | 0.63 | 0.11 | 61 | 1015.0 |
| 20260901130003 | 72 | 233 | 0.0 | 3.0 | 0.00 | 0.63 | 0.11 | 61 | 1015.1 |
| 20260901125503 | 72 | 276 | 0.0 | 4.0 | 0.00 | 0.63 | 0.11 | 61 | 1015.0 |
| 20260901125003 | 72 | 276 | 0.0 | 4.0 | 0.00 | 0.63 | 0.11 | 61 | 1015.0 |
| 20260901124504 | 72 | 219 | 1.0 | 7.0 | 0.00 | 0.63 | 0.11 | 62 | 1014.9 |
| 20260901124003 | 71 | 240 | 2.0 | 8.0 | 0.00 | 0.63 | 0.11 | 62 | 1014.8 |
| 20260901123503 | 71 | 256 | 1.0 | 8.0 | 0.00 | 0.63 | 0.11 | 63 | 1014.8 |
| 20260901123003 | 71 | 227 | 1.0 | 8.0 | 0.00 | 0.63 | 0.11 | 64 | 1014.6 |
| 20260901122503 | 70 | 184 | 1.0 | 5.0 | 0.00 | 0.63 | 0.11 | 64 | 1014.6 |
| 20260901122003 | 70 | 179 | 1.0 | 6.0 | 0.00 | 0.63 | 0.11 | 64 | 1014.6 |
| 20260901121503 | 70 | 187 | 1.0 | 6.0 | 0.00 | 0.63 | 0.11 | 64 | 1014.6 |
| 20260901121003 | 70 | 193 | 1.0 | 5.0 | 0.00 | 0.63 | 0.11 | 64 | 1014.7 |
| 20260901120503 | 70 | 180 | 1.0 | 2.0 | 0.00 | 0.63 | 0.11 | 64 | 1014.6 |
| 20260901120003 | 70 | 174 | 1.0 | 2.0 | 0.00 | 0.63 | 0.11 | 64 | 1014.6 |
| 20260901115503 | 70 | 191 | 1.0 | 4.0 | 0.00 | 0.63 | 0.11 | 64 | 1014.7 |
| 20260901115003 | 70 | 185 | 2.0 | 6.0 | 0.00 | 0.63 | 0.11 | 64 | 1014.8 |
| 20260901114503 | 69 | 175 | 2.0 | 6.0 | 0.00 | 0.63 | 0.11 | 64 | 1014.7 |
| 20260901114003 | 69 | 181 | 1.0 | 5.0 | 0.00 | 0.63 | 0.11 | 64 | 1014.8 |
| 20260901113503 | 69 | 197 | 1.0 | 5.0 | 0.00 | 0.63 | 0.11 | 64 | 1014.7 |
| 20260901113003 | 69 | 190 | 2.0 | 5.0 | 0.00 | 0.63 | 0.11 | 64 | 1014.6 |
| 20260901112714 | 69 | 186 | 2.0 | 6.0 | 0.00 | 0.63 | 0.11 | 64 | 1014.5 |
| 20260901112003 | 69 | 186 | 3.0 | 6.0 | 0.00 | 0.63 | 0.11 | 64 | 1014.4 |
| 20260901111503 | 69 | 188 | 2.0 | 5.0 | 0.00 | 0.63 | 0.11 | 64 | 1014.4 |
| 20260901111003 | 69 | 193 | 1.0 | 5.0 | 0.00 | 0.63 | 0.11 | 64 | 1014.5 |
| 20260901110503 | 69 | 210 | 1.0 | 3.0 | 0.00 | 0.63 | 0.11 | 64 | 1014.6 |
| 20260901110003 | 69 | 212 | 1.0 | 3.0 | 0.00 | 0.63 | 0.11 | 64 | 1014.5 |
| 20260901105503 | 69 | 208 | 0.0 | 2.0 | 0.00 | 0.63 | 0.11 | 64 | 1014.5 |
| 20260901105003 | 69 | 0 | 0.0 | 0.0 | 0.00 | 0.64 | 0.11 | 64 | 1014.6 |
| 20260901104714 | 69 | 234 | 0.0 | 1.0 | 0.00 | 0.64 | 0.11 | 64 | 1014.5 |
| 20260901104213 | 69 | 234 | 0.0 | 2.0 | 0.00 | 0.64 | 0.11 | 63 | 1014.4 |
| 20260901103503 | 69 | 235 | 1.0 | 2.0 | 0.00 | 0.64 | 0.11 | 63 | 1014.5 |
| 20260901103003 | 69 | 238 | 1.0 | 2.0 | 0.00 | 0.64 | 0.11 | 63 | 1014.5 |
| 20260901102503 | 69 | 238 | 0.0 | 2.0 | 0.00 | 0.64 | 0.11 | 63 | 1014.5 |
| 20260901102003 | 69 | 230 | 1.0 | 3.0 | 0.02 | 0.65 | 0.11 | 63 | 1014.4 |
| 20260901101503 | 70 | 238 | 1.0 | 3.0 | 0.02 | 0.65 | 0.11 | 63 | 1014.4 |
| 20260901101003 | 70 | 263 | 1.0 | 3.0 | 0.02 | 0.65 | 0.11 | 63 | 1014.3 |
| 20260901100503 | 70 | 254 | 1.0 | 3.0 | 0.02 | 0.66 | 0.11 | 63 | 1014.3 |
| 20260901100003 | 70 | 242 | 1.0 | 4.0 | 0.02 | 0.66 | 0.11 | 63 | 1014.4 |
| 20260901095713 | 70 | 214 | 1.0 | 5.0 | 0.02 | 0.67 | 0.11 | 63 | 1014.3 |
| 20260901095003 | 70 | 222 | 2.0 | 5.0 | 0.02 | 0.67 | 0.11 | 63 | 1014.3 |
| 20260901094503 | 70 | 243 | 1.0 | 7.0 | 0.02 | 0.68 | 0.11 | 63 | 1014.3 |
| 20260901094003 | 70 | 263 | 1.0 | 7.0 | 0.02 | 0.68 | 0.11 | 63 | 1014.3 |
| 20260901093503 | 70 | 260 | 2.0 | 11.0 | 0.02 | 0.68 | 0.11 | 63 | 1014.5 |
| 20260901093003 | 70 | 249 | 2.0 | 12.0 | 0.02 | 0.68 | 0.11 | 63 | 1014.7 |
| 20260901092503 | 70 | 239 | 2.0 | 12.0 | 0.02 | 0.68 | 0.11 | 64 | 1014.7 |
| 20260901092003 | 69 | 231 | 2.0 | 8.0 | 0.00 | 0.67 | 0.09 | 64 | 1014.5 |
| 20260901091503 | 69 | 238 | 3.0 | 8.0 | 0.00 | 0.67 | 0.09 | 64 | 1014.3 |
| 20260901091003 | 69 | 241 | 2.0 | 8.0 | 0.00 | 0.68 | 0.09 | 65 | 1014.4 |
| 20260901090713 | 69 | 228 | 2.0 | 8.0 | 0.00 | 0.68 | 0.09 | 65 | 1014.5 |
| 20260901090003 | 68 | 223 | 2.0 | 7.0 | 0.00 | 0.68 | 0.09 | 65 | 1014.3 |
| 20260901085713 | 68 | 229 | 2.0 | 4.0 | 0.00 | 0.68 | 0.09 | 65 | 1014.3 |
| 20260901085214 | 68 | 227 | 2.0 | 7.0 | 0.00 | 0.68 | 0.09 | 65 | 1014.3 |
| 20260901084713 | 68 | 225 | 2.0 | 7.0 | 0.00 | 0.68 | 0.09 | 65 | 1014.4 |
| 20260901084003 | 68 | 217 | 2.0 | 6.0 | 0.00 | 0.68 | 0.09 | 65 | 1014.4 |
| 20260901083503 | 67 | 199 | 2.0 | 6.0 | 0.00 | 0.68 | 0.09 | 65 | 1014.5 |
| 20260901083003 | 67 | 205 | 2.0 | 7.0 | 0.00 | 0.68 | 0.09 | 65 | 1014.4 |
| 20260901082503 | 67 | 234 | 2.0 | 7.0 | 0.00 | 0.68 | 0.09 | 65 | 1014.4 |
| 20260901082003 | 67 | 236 | 2.0 | 6.0 | 0.00 | 0.68 | 0.09 | 65 | 1014.5 |
| 20260901081503 | 67 | 224 | 1.0 | 4.0 | 0.00 | 0.68 | 0.09 | 65 | 1014.4 |
| 20260901081214 | 67 | 217 | 1.0 | 4.0 | 0.00 | 0.68 | 0.09 | 65 | 1014.5 |
| 20260901080503 | 67 | 216 | 1.0 | 4.0 | 0.00 | 0.68 | 0.09 | 65 | 1014.7 |
| 20260901080003 | 67 | 226 | 1.0 | 3.0 | 0.00 | 0.68 | 0.09 | 65 | 1014.6 |
| 20260901075713 | 66 | 218 | 1.0 | 4.0 | 0.00 | 0.68 | 0.09 | 65 | 1014.6 |
| 20260901075003 | 66 | 217 | 1.0 | 4.0 | 0.00 | 0.68 | 0.09 | 65 | 1014.9 |
| 20260901074503 | 66 | 234 | 1.0 | 7.0 | 0.00 | 0.68 | 0.09 | 65 | 1015.1 |
| 20260901074003 | 66 | 233 | 1.0 | 7.0 | 0.00 | 0.68 | 0.09 | 65 | 1015.2 |
| 20260901073503 | 66 | 240 | 1.0 | 4.0 | 0.00 | 0.68 | 0.09 | 65 | 1015.4 |
| 20260901073003 | 66 | 240 | 1.0 | 5.0 | 0.00 | 0.68 | 0.09 | 65 | 1015.4 |
| 20260901072503 | 66 | 247 | 1.0 | 5.0 | 0.00 | 0.68 | 0.09 | 65 | 1015.4 |
| 20260901072003 | 66 | 254 | 1.0 | 3.0 | 0.00 | 0.68 | 0.09 | 65 | 1015.5 |
| 20260901071712 | 66 | 254 | 1.0 | 3.0 | 0.00 | 0.68 | 0.09 | 65 | 1015.5 |
| 20260901071003 | 66 | 255 | 1.0 | 3.0 | 0.00 | 0.68 | 0.09 | 65 | 1015.5 |
| 20260901070503 | 66 | 257 | 1.0 | 2.0 | 0.00 | 0.68 | 0.09 | 65 | 1015.5 |
| 20260901070213 | 66 | 257 | 1.0 | 3.0 | 0.00 | 0.68 | 0.09 | 65 | 1015.6 |
| 20260901065503 | 67 | 217 | 1.0 | 3.0 | 0.00 | 0.68 | 0.09 | 65 | 1015.6 |
| 20260901065003 | 67 | 200 | 1.0 | 5.0 | 0.06 | 0.68 | 0.09 | 65 | 1015.7 |
| 20260901064503 | 67 | 200 | 1.0 | 5.0 | 0.08 | 0.68 | 0.09 | 65 | 1015.6 |
| 20260901064003 | 67 | 0 | 0.0 | 0.0 | 0.09 | 0.68 | 0.09 | 65 | 1015.6 |
| 20260901063503 | 67 | 183 | 1.0 | 3.0 | 0.09 | 0.68 | 0.09 | 65 | 1015.6 |
| 20260901063003 | 67 | 184 | 1.0 | 3.0 | 0.09 | 0.68 | 0.09 | 65 | 1015.7 |
| 20260901062714 | 67 | 184 | 1.0 | 3.0 | 0.09 | 0.68 | 0.09 | 65 | 1015.7 |
| 20260901062003 | 67 | 189 | 1.0 | 2.0 | 0.09 | 0.68 | 0.09 | 65 | 1015.9 |
| 20260901061503 | 67 | 189 | 1.0 | 2.0 | 0.09 | 0.68 | 0.09 | 65 | 1016.0 |
| 20260901060503 | 67 | 193 | 2.0 | 4.0 | 0.09 | 0.68 | 0.09 | 65 | 1016.1 |
| 20260901060003 | 67 | 202 | 1.0 | 4.0 | 0.09 | 0.68 | 0.09 | 65 | 1016.0 |
| 20260901055503 | 67 | 267 | 0.0 | 4.0 | 0.09 | 0.68 | 0.09 | 65 | 1016.2 |
| 20260901055003 | 67 | 266 | 0.0 | 4.0 | 0.03 | 0.62 | 0.03 | 65 | 1016.5 |
| 20260901054503 | 67 | 257 | 0.0 | 2.0 | 0.01 | 0.60 | 0.01 | 65 | 1016.4 |
| 20260901054003 | 67 | 257 | 1.0 | 2.0 | 0.00 | 0.59 | 0.00 | 65 | 1016.3 |
| 20260901053503 | 67 | 250 | 1.0 | 4.0 | 0.00 | 0.59 | 0.00 | 65 | 1016.3 |
| 20260901053003 | 66 | 253 | 2.0 | 4.0 | 0.00 | 0.59 | 0.00 | 65 | 1016.4 |
| 20260901052503 | 66 | 257 | 1.0 | 3.0 | 0.00 | 0.59 | 0.00 | 65 | 1016.4 |
| 20260901052004 | 66 | 256 | 2.0 | 4.0 | 0.00 | 0.59 | 0.00 | 65 | 1016.5 |